GPS II-9

operational
NORAD ID: 20830 Int'l Des: 1990-088 Owner: AFSSD2 Country: US Constellation: GPS
MEOCIRCULAR

关于 GPS II-9

正在加载描述...

实时位置

正在加载3D地球...

即将过境

高度历史

Altitude vs Time

uPlot chart will show altitude changes over time

两行轨道根数

1 20830U 90088A 26059.52180128 -.00000101 00000-0 00000+0 0 9999
2 20830 56.4341 13.5763 0024811 290.5077 245.0619 1.87752698250769
Epoch: Feb 28, 2026 • Age: 76 hours

当前状态

高度 21423.3 km
速度 3.78 km/s
星下点 17.85°N, 37.29°W
发射日期 Oct 1, 1990
运行时间 35.4 years
类型 navigation

技术详情

分类 Payload
质量 776.00 kg
干质量 776.00 kg
总质量 1667.00 kg
长度 2.40 m
直径 1.80 m
跨度 5.30 m
形状 Box + 2 Pan
制造商 RWISB
平台类型 GPS II
阶段状态 In Orbit
所有者/国家 AFSSD2/US

大型星座

Loading constellations...